PST,Max TemperatureF,Mean TemperatureF,Min TemperatureF,Max Dew PointF,MeanDew PointF,Min DewpointF,Max Humidity, Mean Humidity, Min Humidity, Max Sea Level PressureIn, Mean Sea Level PressureIn, Min Sea Level PressureIn, Max VisibilityMiles, Mean VisibilityMiles, Min VisibilityMiles, Max Wind SpeedMPH, Mean Wind SpeedMPH, Max Gust SpeedMPH,PrecipitationIn, CloudCover, Events, WindDirDegrees
2014-1-1,64,47,29,37,33,28,92,63,34,30.26,30.20,30.15,4,2,0,6,1,19,0.00,0,Fog,70
2014-1-2,66,49,31,37,33,29,92,62,32,30.22,30.15,30.08,4,2,1,7,2,8,0.00,0,,17
2014-1-3,63,47,31,38,34,29,92,63,34,30.12,30.05,29.98,4,2,1,8,2,8,0.00,0,,75
2014-1-4,65,48,30,38,33,27,92,62,31,30.12,30.04,29.99,5,2,0,9,3,12,0.00,0,Fog,344
2014-1-5,66,48,30,37,32,29,100,65,29,30.26,30.18,30.12,5,2,0,7,2,10,0.00,0,Fog,50
2014-1-6,66,48,29,40,33,27,100,66,31,30.33,30.25,30.19,4,2,0,7,2,8,0.00,0,Fog,61
2014-1-7,61,49,36,39,35,32,85,62,39,30.23,30.17,30.13,4,3,2,7,2,12,0.00,0,,234
2014-1-8,61,46,30,42,34,28,92,64,36,30.27,30.19,30.15,6,2,0,12,4,14,0.00,0,Fog,263
2014-1-9,60,46,32,43,38,32,100,75,49,30.26,30.22,30.16,6,2,0,14,3,17,0.00,1,Fog,257
2014-1-10,61,47,32,43,38,32,100,76,51,30.32,30.25,30.21,6,2,0,8,3,11,0.00,0,Fog,133
2014-1-11,61,47,33,44,38,31,100,78,55,30.28,30.23,30.15,7,2,0,16,4,20,0.00,0,Fog,76
2014-1-12,55,45,34,43,39,33,100,83,66,30.39,30.30,30.23,10,5,0,16,5,20,0.00,2,Fog,341
2014-1-13,60,45,29,42,35,28,100,76,51,30.52,30.44,30.37,8,2,0,7,2,8,0.00,1,Fog,115
2014-1-14,64,46,27,43,35,26,100,70,39,30.52,30.44,30.39,9,3,0,8,2,8,0.00,0,Fog,113
2014-1-15,69,50,30,42,34,29,100,67,33,30.40,30.34,30.25,5,2,0,8,1,8,0.00,0,Fog,82
2014-1-16,69,50,31,42,35,30,96,67,37,30.29,30.23,30.16,4,2,0,6,1,8,0.00,0,Fog,80
2014-1-17,75,54,32,40,35,31,92,57,22,30.24,30.18,30.11,5,2,0,7,3,11,0.00,0,Fog,40
2014-1-18,71,53,34,40,36,32,96,62,27,30.22,30.15,30.09,5,3,1,7,2,,0.00,0,,118
2014-1-19,72,53,33,40,35,30,92,60,27,30.19,30.12,30.06,3,2,1,6,1,7,0.00,0,,59
2014-1-20,70,50,30,39,34,28,92,59,26,30.27,30.19,30.14,4,2,0,7,1,17,0.00,0,Fog,132
2014-1-21,69,51,32,40,34,31,96,62,27,30.28,30.23,30.17,4,2,1,9,2,14,0.00,0,,236
2014-1-22,68,52,36,39,35,31,85,56,26,30.19,30.09,29.96,4,3,2,6,2,8,0.00,0,,126
2014-1-23,68,51,33,35,32,28,85,56,26,30.05,29.95,29.88,6,4,2,10,4,12,0.00,1,,36
2014-1-24,77,60,43,41,32,21,76,45,13,30.24,30.16,30.06,9,6,3,8,2,8,0.00,4,,27
2014-1-25,74,60,45,35,31,25,56,36,16,30.27,30.20,30.14,9,6,4,10,4,13,0.00,0,,319
2014-1-26,70,55,40,38,35,29,76,49,22,30.15,30.10,30.03,7,6,5,8,2,9,0.00,0,,26
2014-1-27,70,52,34,38,33,30,89,56,23,30.19,30.13,30.06,7,5,2,8,1,12,0.00,0,,283
2014-1-28,71,55,38,41,37,33,85,58,31,30.26,30.21,30.16,8,5,2,8,2,12,0.00,0,,151
2014-1-29,72,57,42,49,42,34,76,59,42,30.22,30.13,29.97,9,5,2,9,3,12,0.00,1,,113
2014-1-30,59,51,43,52,47,41,96,84,71,29.95,29.90,29.87,10,4,0,17,4,23,0.07,6,Fog-Rain,337
2014-1-31,61,49,37,49,42,29,100,71,42,30.07,29.98,29.88,10,7,0,16,7,22,0.04,4,Fog-Rain,312